カタログに戻る

NOAA 16 DEB

運用中SSO
NORAD 41281·DEBRIS·🇺🇸 United States

打ち上げ Sep 21, 2000 から Vandenberg Space Force Base

Loading…

次のパス (今後24時間)

TLE

最新Source: Space-Track

元期: Sep 13, 2026, 10:25 UTC

1 41281U 00055GH  26256.43464048  .00002938  00000-0  11951-2 0  9991
2 41281  98.8050 324.1937 0027682 316.4107  43.4886 14.28095892552063

AllMySatでNOAA 16 DEBをリアルタイム追跡

Download on the App Store